This is the latest recevied weather packets stored in our database for station/object WA6GRA. If no packets are shown the sender has not sent any weather packets the latest 10 day(s).
| Time | Temp. | Humidity | Pressure | Rain* | Wind** | Luminosity | Snow |
|---|---|---|---|---|---|---|---|
| 1777642338 | 14.44° C | 86% | 1012.8 hPa | 0 mm | - | 25 W/m² | - |
| 1777641736 | 14.44° C | 86% | 1012.5 hPa | 0 mm | - | 15 W/m² | - |
| 1777641133 | 14.44° C | 85% | 1012.7 hPa | 0 mm | - | 8 W/m² | - |
| 1777640532 | 14.44° C | 85% | 1012.5 hPa | 0 mm | - | 3 W/m² | - |
| 1777639931 | 15° C | 84% | 1012.4 hPa | 0 mm | - | 1 W/m² | - |
| 1777639330 | 15° C | 84% | 1012.4 hPa | 0 mm | - | 0 W/m² | - |
| 1777638729 | 15° C | 83% | 1012.3 hPa | 0 mm | - | 0 W/m² | - |
| 1777638128 | 15.56° C | 82% | 1012.4 hPa | 0 mm | - | 0 W/m² | - |
| 1777637526 | 15.56° C | 82% | 1012.1 hPa | 0 mm | - | 0 W/m² | - |
| 1777636920 | 15.56° C | 81% | 1012.2 hPa | 0 mm | - | 0 W/m² | - |
| 1777636318 | 15° C | 83% | 1012.3 hPa | 0 mm | - | 0 W/m² | - |
| 1777635715 | 15° C | 83% | 1012.1 hPa | 0 mm | - | 0 W/m² | - |
| 1777635114 | 15° C | 84% | 1012.1 hPa | 0 mm | - | 0 W/m² | - |
| 1777634513 | 15° C | 86% | 1012.1 hPa | 0 mm | - | 0 W/m² | - |
| 1777633912 | 15° C | 85% | 1012.2 hPa | 0 mm | - | 0 W/m² | - |
| 1777633307 | 15° C | 86% | 1012.2 hPa | 0 mm | - | 0 W/m² | - |
| 1777632707 | 15° C | 86% | 1012.3 hPa | 0 mm | - | 0 W/m² | - |
| 1777632106 | 15.56° C | 85% | 1012.1 hPa | 0 mm | - | 0 W/m² | - |
| 1777631502 | 15.56° C | 85% | 1012.2 hPa | 0 mm | - | 0 W/m² | - |
| 1777630902 | 15.56° C | 85% | 1012.1 hPa | 0 mm | - | 0 W/m² | - |
| 1777630300 | 15.56° C | 85% | 1012.2 hPa | 0 mm | - | 0 W/m² | - |
| 1777629695 | 15.56° C | 84% | 1011.9 hPa | 0 mm | - | 0 W/m² | - |
| 1777629092 | 16.11° C | 82% | 1012 hPa | 0 mm | - | 0 W/m² | - |
| 1777628492 | 16.11° C | 81% | 1011.9 hPa | 0 mm | - | 0 W/m² | - |
| 1777627890 | 16.67° C | 81% | 1012 hPa | 0 mm | - | 0 W/m² | - |
* Rain latest hour (hover to see other rain measurements)
** Current wind speed in m/s (hover to see current wind gust speed)